Previsão horária em Cerkiewnik

Hoje, 25 Julho, Domingo

Tempo Temperatura Precipitação Vento Pressão Humidade
00:00 +17°C° 0 mm 2 m/s 753 mmHg 81%
01:00 +17°C° 0 mm 2 m/s 753 mmHg 84%
02:00 +17°C° 0 mm 2 m/s 753 mmHg 85%
03:00 +16°C° 0 mm 2 m/s 753 mmHg 85%
04:00 +16°C° 0 mm 2 m/s 753 mmHg 86%
05:00 +18°C° 0 mm 2 m/s 753 mmHg 80%
06:00 +20°C° 0 mm 3 m/s 753 mmHg 74%
07:00 +22°C° 0 mm 3 m/s 753 mmHg 68%
08:00 +24°C° 0 mm 3 m/s 753 mmHg 63%
09:00 +26°C° 0 mm 3 m/s 753 mmHg 58%
10:00 +27°C° 0 mm 4 m/s 753 mmHg 53%
11:00 +28°C° 0 mm 4 m/s 752 mmHg 50%
12:00 +29°C° 0 mm 4 m/s 752 mmHg 46%
13:00 +30°C° 0 mm 4 m/s 752 mmHg 43%
14:00 +29°C° 0.1 mm 4 m/s 752 mmHg 48%
15:00 +29°C° 0.1 mm 4 m/s 752 mmHg 53%
16:00 +28°C° 0.1 mm 4 m/s 752 mmHg 58%
17:00 +26°C° 0.3 mm 4 m/s 752 mmHg 64%
18:00 +24°C° 0.3 mm 3 m/s 752 mmHg 71%
19:00 +21°C° 0.3 mm 3 m/s 752 mmHg 78%
20:00 +21°C° 0.1 mm 3 m/s 752 mmHg 79%
21:00 +20°C° 0.1 mm 3 m/s 752 mmHg 81%
22:00 +20°C° 0.1 mm 3 m/s 752 mmHg 82%
23:00 +19°C° 0 mm 3 m/s 752 mmHg 83%

Amanhã, 26 Julho, Segunda-feira

Tempo Temperatura Precipitação Vento Pressão Humidade
00:00 +19°C° 0 mm 3 m/s 752 mmHg 83%
01:00 +18°C° 0 mm 3 m/s 752 mmHg 84%
02:00 +18°C° 0 mm 3 m/s 752 mmHg 84%
03:00 +18°C° 0 mm 3 m/s 752 mmHg 84%
04:00 +18°C° 0 mm 2 m/s 752 mmHg 83%
05:00 +19°C° 0 mm 3 m/s 752 mmHg 81%
06:00 +19°C° 0 mm 3 m/s 752 mmHg 78%
07:00 +20°C° 0 mm 3 m/s 752 mmHg 76%
08:00 +22°C° 0 mm 4 m/s 752 mmHg 68%
09:00 +25°C° 0 mm 5 m/s 752 mmHg 61%
10:00 +28°C° 0 mm 6 m/s 752 mmHg 54%
11:00 +29°C° 0 mm 6 m/s 751 mmHg 51%
12:00 +29°C° 0 mm 6 m/s 751 mmHg 48%
13:00 +30°C° 0 mm 6 m/s 751 mmHg 45%
14:00 +28°C° 0.1 mm 5 m/s 751 mmHg 55%
15:00 +26°C° 0.1 mm 5 m/s 751 mmHg 66%
16:00 +23°C° 0.1 mm 4 m/s 751 mmHg 77%
17:00 +22°C° 0.4 mm 4 m/s 751 mmHg 80%
18:00 +22°C° 0.4 mm 4 m/s 750 mmHg 83%
19:00 +21°C° 0.4 mm 4 m/s 750 mmHg 86%
20:00 +21°C° 0.5 mm 4 m/s 750 mmHg 89%
21:00 +20°C° 0.5 mm 4 m/s 750 mmHg 92%
22:00 +19°C° 0.5 mm 4 m/s 750 mmHg 95%
23:00 +19°C° 0.3 mm 4 m/s 750 mmHg 95%

Depois de amanhã, 27 Julho, Terça-feira

Tempo Temperatura Precipitação Vento Pressão Humidade
00:00 +19°C° 0.3 mm 3 m/s 750 mmHg 95%
01:00 +19°C° 0.3 mm 2 m/s 750 mmHg 96%
02:00 +19°C° 0.3 mm 2 m/s 750 mmHg 96%
03:00 +18°C° 0.3 mm 2 m/s 749 mmHg 97%
04:00 +18°C° 0.3 mm 2 m/s 749 mmHg 97%
05:00 +19°C° 0.1 mm 2 m/s 749 mmHg 96%
06:00 +19°C° 0.1 mm 2 m/s 749 mmHg 94%
07:00 +21°C° 0.1 mm 1 m/s 749 mmHg 93%
08:00 +21°C° 0 mm 2 m/s 749 mmHg 90%
09:00 +23°C° 0 mm 2 m/s 749 mmHg 86%
10:00 +24°C° 0 mm 2 m/s 749 mmHg 83%
11:00 +25°C° 0.4 mm 2 m/s 749 mmHg 80%
12:00 +26°C° 0.4 mm 3 m/s 749 mmHg 76%
13:00 +27°C° 0.4 mm 3 m/s 749 mmHg 73%
14:00 +27°C° 0.4 mm 3 m/s 749 mmHg 71%
15:00 +27°C° 0.4 mm 3 m/s 749 mmHg 68%
16:00 +28°C° 0.4 mm 4 m/s 749 mmHg 65%
17:00 +25°C° 1.1 mm 3 m/s 749 mmHg 74%
18:00 +22°C° 1.1 mm 3 m/s 750 mmHg 84%
19:00 +20°C° 1.1 mm 2 m/s 750 mmHg 93%
20:00 +19°C° 0 mm 2 m/s 750 mmHg 92%
21:00 +20°C° 0 mm 1 m/s 750 mmHg 90%
22:00 +19°C° 0 mm 1 m/s 750 mmHg 89%
23:00 +19°C° 0 mm 1 m/s 750 mmHg 89%

28 Julho, Quarta-feira

Tempo Temperatura Precipitação Vento Pressão Humidade
00:00 +19°C° 0 mm 1 m/s 750 mmHg 89%
01:00 +19°C° 0 mm 1 m/s 750 mmHg 89%
02:00 +17°C° 0 mm 2 m/s 750 mmHg 89%
03:00 +17°C° 0 mm 2 m/s 750 mmHg 90%
04:00 +17°C° 0 mm 2 m/s 750 mmHg 90%
05:00 +19°C° 0 mm 2 m/s 750 mmHg 87%
06:00 +20°C° 0 mm 2 m/s 750 mmHg 84%
07:00 +23°C° 0 mm 2 m/s 750 mmHg 80%
08:00 +24°C° 0.4 mm 3 m/s 750 mmHg 73%
09:00 +26°C° 0.4 mm 3 m/s 750 mmHg 65%
10:00 +27°C° 0.4 mm 4 m/s 750 mmHg 58%
11:00 +28°C° 0 mm 4 m/s 750 mmHg 54%
12:00 +29°C° 0 mm 3 m/s 750 mmHg 51%
13:00 +29°C° 0 mm 3 m/s 750 mmHg 47%
14:00 +29°C° 0 mm 3 m/s 750 mmHg 51%
15:00 +28°C° 0 mm 3 m/s 750 mmHg 55%
16:00 +27°C° 0 mm 2 m/s 750 mmHg 59%
17:00 +26°C° 0 mm 2 m/s 750 mmHg 63%
18:00 +25°C° 0 mm 2 m/s 750 mmHg 66%
19:00 +24°C° 0 mm 1 m/s 750 mmHg 70%
20:00 +23°C° 0 mm 2 m/s 750 mmHg 70%
21:00 +23°C° 0 mm 2 m/s 750 mmHg 70%
22:00 +21°C° 0 mm 3 m/s 750 mmHg 71%
23:00 +20°C° 0 mm 3 m/s 750 mmHg 76%

29 Julho, Quinta-feira

Tempo Temperatura Precipitação Vento Pressão Humidade
00:00 +20°C° 0 mm 2 m/s 751 mmHg 81%
01:00 +19°C° 0 mm 2 m/s 751 mmHg 87%
02:00 +18°C° 0 mm 2 m/s 751 mmHg 89%
03:00 +17°C° 0 mm 2 m/s 751 mmHg 91%
04:00 +16°C° 0 mm 2 m/s 751 mmHg 94%
05:00 +18°C° 0 mm 2 m/s 751 mmHg 87%
06:00 +19°C° 0 mm 2 m/s 752 mmHg 81%
07:00 +20°C° 0 mm 2 m/s 752 mmHg 75%
08:00 +23°C° 0 mm 2 m/s 752 mmHg 69%
09:00 +24°C° 0 mm 3 m/s 752 mmHg 62%
10:00 +25°C° 0 mm 3 m/s 752 mmHg 56%
11:00 +26°C° 0 mm 3 m/s 752 mmHg 53%
12:00 +27°C° 0 mm 3 m/s 752 mmHg 50%
13:00 +28°C° 0 mm 3 m/s 751 mmHg 47%
14:00 +27°C° 0 mm 2 m/s 751 mmHg 50%
15:00 +27°C° 0 mm 1 m/s 751 mmHg 53%
16:00 +26°C° 0 mm 1 m/s 751 mmHg 56%
17:00 +25°C° 0 mm 1 m/s 751 mmHg 59%
18:00 +24°C° 0 mm 1 m/s 751 mmHg 61%
19:00 +23°C° 0 mm 2 m/s 750 mmHg 63%
20:00 +23°C° 0 mm 2 m/s 750 mmHg 64%
21:00 +23°C° 0 mm 2 m/s 750 mmHg 64%
22:00 +21°C° 0 mm 2 m/s 750 mmHg 64%
23:00 +21°C° 0 mm 2 m/s 750 mmHg 65%

30 Julho, Sexta-feira

Tempo Temperatura Precipitação Vento Pressão Humidade
00:00 +21°C° 0 mm 2 m/s 750 mmHg 66%
01:00 +20°C° 0 mm 2 m/s 749 mmHg 67%
02:00 +20°C° 0 mm 2 m/s 749 mmHg 67%
03:00 +20°C° 0 mm 2 m/s 749 mmHg 68%
04:00 +20°C° 0 mm 2 m/s 749 mmHg 69%
05:00 +21°C° 0 mm 3 m/s 749 mmHg 69%
06:00 +22°C° 0 mm 3 m/s 749 mmHg 68%
07:00 +22°C° 0 mm 3 m/s 749 mmHg 68%
08:00 +25°C° 0 mm 4 m/s 749 mmHg 62%
09:00 +27°C° 0 mm 5 m/s 748 mmHg 57%
10:00 +28°C° 0 mm 6 m/s 748 mmHg 51%
11:00 +29°C° 0 mm 6 m/s 747 mmHg 51%
12:00 +29°C° 0 mm 5 m/s 747 mmHg 51%
13:00 +29°C° 0 mm 5 m/s 746 mmHg 51%
14:00 +28°C° 0.2 mm 5 m/s 746 mmHg 56%
15:00 +27°C° 0.2 mm 4 m/s 746 mmHg 61%
16:00 +26°C° 0.2 mm 4 m/s 745 mmHg 66%
17:00 +25°C° 0.9 mm 4 m/s 745 mmHg 75%
18:00 +22°C° 0.9 mm 3 m/s 746 mmHg 84%
19:00 +21°C° 0.9 mm 2 m/s 746 mmHg 93%
20:00 +20°C° 0.1 mm 2 m/s 746 mmHg 94%
21:00 +19°C° 0.1 mm 2 m/s 747 mmHg 95%
22:00 +20°C° 0.1 mm 1 m/s 747 mmHg 97%
23:00 +19°C° 0 mm 1 m/s 747 mmHg 96%
Mostrar mais

Necessitamos do seu Consentimento

A Meteoprog e os seus Fornecedores de Serviços podem armazenar e aceder a dados pessoais como cookies, identificadores do dispositivo ou outras tecnologias semelhantes existentes no seu dispositivo e processar estes dados para personalizar conteúdos e anúncios, assim como funcionalidades nas redes sociais e análise de tráfego.

  • Armazenar e/ou aceder a informações no seu dispositivo

    Os cookies, identificadores do dispositivo ou outras informações podem ser armazenados ou acedidos no seu dispositivo, para os fins acima indicados.

  • Anúncios e conteúdos personalizados, medição de anúncios e conteúdos, dados sobre o público-alvo e desenvolvimento de produtos

    Os anúncios e os conteúdos podem ser personalizados com base num perfil. Podem ser adicionados dados adicionais para uma maior personalização dos anúncios e dos conteúdos. A eficácia dos anúncios e dos conteúdos pode ser medida. Podem ser obtidas informações sobre o público que visualizou os anúncios e os conteúdos. Estes dados podem ser usados para desenvolver ou melhorar sistemas, softwares ou a experiência do utilizador.

Ao clicar em "Eu concordo”, permitirá o uso de cookies, identificadores do dispositivo e web beacons mencionados ou outras tecnologias semelhantes. As configurações do navegador do seu dispositivo podem ser alteradas.

Para certos fins, podem ser invocados interesses legítimos ao invés de consentimento. Pode ler mais informação sobre este assunto na nossa Política de Privacidade e Cookies.